WEN3628 CYYC-KPDX

Flight info

Callsign WEN3628
Flight time N/A
Altitude 24000
Route DCT DUMRA Q890 ROPLA DCT GEG DCT JORAD HHOOD6
Aircraft DH8D/M-SDE2E3FGRY/H

Departure

Time 2026-05-06 21:51
Airport Calgary International Airport (CYYC)

Arrival

Time N/A
Airport Portland International Airport (KPDX)
Time Latitude Longitude Altitude Speed Heading
2026-05-06 21:26 51.13079 -114.00227 3567 ft 0 kts 213°
2026-05-06 21:37 51.13079 -114.00228 3567 ft 0 kts 213°
2026-05-06 21:37 51.13090 -114.00217 3567 ft 2 kts 213°
2026-05-06 21:37 51.13102 -114.00204 3567 ft 2 kts 213°
2026-05-06 21:38 51.13115 -114.00191 3567 ft 2 kts 213°
2026-05-06 21:38 51.13128 -114.00177 3567 ft 2 kts 222°
2026-05-06 21:38 51.13137 -114.00161 3567 ft 2 kts 227°
2026-05-06 21:38 51.13147 -114.00144 3567 ft 2 kts 226°
2026-05-06 21:39 51.13157 -114.00127 3568 ft 2 kts 226°
2026-05-06 21:39 51.13167 -114.00110 3569 ft 2 kts 226°
2026-05-06 21:39 51.13177 -114.00093 3570 ft 2 kts 226°
2026-05-06 21:39 51.13185 -114.00079 3570 ft 0 kts 227°
2026-05-06 21:40 51.13190 -114.00074 3571 ft 1 kts 182°
2026-05-06 21:40 51.13196 -114.00077 3570 ft 1 kts 133°
2026-05-06 21:40 51.13199 -114.00082 3570 ft 0 kts 134°
2026-05-06 21:43 51.13196 -114.00077 3570 ft 0 kts 132°
2026-05-06 21:43 51.13187 -114.00062 3572 ft 3 kts 134°
2026-05-06 21:43 51.13164 -114.00015 3575 ft 6 kts 107°
2026-05-06 21:44 51.13161 -113.99908 3576 ft 13 kts 87°
2026-05-06 21:44 51.13162 -113.99714 3576 ft 20 kts 90°
2026-05-06 21:44 51.13162 -113.99558 3578 ft 13 kts 91°
2026-05-06 21:44 51.13111 -113.99443 3580 ft 17 kts 175°
2026-05-06 21:45 51.12973 -113.99442 3578 ft 20 kts 180°
2026-05-06 21:45 51.12815 -113.99442 3578 ft 25 kts 179°
2026-05-06 21:45 51.12631 -113.99443 3577 ft 25 kts 180°
2026-05-06 21:45 51.12454 -113.99445 3575 ft 27 kts 179°
2026-05-06 21:46 51.12280 -113.99443 3574 ft 26 kts 180°
2026-05-06 21:46 51.12107 -113.99442 3571 ft 20 kts 181°
2026-05-06 21:46 51.11951 -113.99445 3568 ft 25 kts 180°
2026-05-06 21:46 51.11764 -113.99445 3564 ft 26 kts 179°
2026-05-06 21:47 51.11611 -113.99442 3562 ft 16 kts 180°
2026-05-06 21:47 51.11512 -113.99445 3560 ft 15 kts 181°
2026-05-06 21:47 51.11372 -113.99445 3557 ft 24 kts 179°
2026-05-06 21:47 51.11196 -113.99445 3557 ft 22 kts 180°
2026-05-06 21:48 51.11058 -113.99432 3557 ft 13 kts 147°
2026-05-06 21:48 51.11034 -113.99319 3557 ft 9 kts 90°
2026-05-06 21:48 51.11034 -113.99234 3557 ft 1 kts 90°
2026-05-06 21:48 51.11034 -113.99233 3557 ft 0 kts 90°
2026-05-06 21:49 51.11034 -113.99220 3557 ft 5 kts 90°
2026-05-06 21:49 51.11033 -113.99110 3557 ft 14 kts 87°
2026-05-06 21:50 51.11116 -113.99034 3557 ft 17 kts 359°
2026-05-06 21:50 51.11248 -113.99035 3557 ft 18 kts 359°
2026-05-06 21:50 51.11470 -113.99033 3560 ft 63 kts
2026-05-06 21:50 51.12175 -113.99033 3570 ft 134 kts
2026-05-06 21:51 51.13260 -113.99038 3675 ft 167 kts
2026-05-06 21:51 51.14436 -113.99033 4149 ft 173 kts
2026-05-06 21:51 51.15653 -113.98933 4645 ft 180 kts
2026-05-06 21:51 51.16898 -113.98807 5277 ft 179 kts
2026-05-06 21:52 51.18041 -113.98695 6211 ft 158 kts 359°
2026-05-06 21:52 51.19050 -113.99038 6858 ft 151 kts 327°
2026-05-06 21:52 51.19607 -114.00440 7209 ft 167 kts 283°
2026-05-06 21:52 51.19457 -114.02377 7504 ft 186 kts 259°
2026-05-06 21:53 51.18773 -114.04208 7873 ft 207 kts 226°
2026-05-06 21:53 51.17541 -114.05405 8471 ft 209 kts 208°
2026-05-06 21:53 51.16219 -114.06212 9182 ft 202 kts 207°
2026-05-06 21:53 51.14914 -114.07179 9551 ft 213 kts 213°
2026-05-06 21:54 51.13590 -114.08277 9893 ft 225 kts 216°
2026-05-06 21:54 51.12498 -114.10021 10122 ft 225 kts 247°
2026-05-06 21:54 51.11482 -114.12053 10498 ft 247 kts 226°
2026-05-06 21:54 51.09870 -114.13202 10876 ft 270 kts 199°
2026-05-06 21:55 51.07986 -114.13705 11264 ft 281 kts 197°
2026-05-06 21:55 51.06023 -114.14294 11625 ft 291 kts 198°
2026-05-06 21:55 51.03988 -114.14877 11986 ft 301 kts 197°
2026-05-06 21:55 51.01889 -114.15449 12332 ft 311 kts 195°
2026-05-06 21:56 50.99718 -114.16016 12593 ft 323 kts 193°
2026-05-06 21:56 50.97477 -114.16579 12964 ft 330 kts 191°
2026-05-06 21:56 50.95214 -114.17143 13340 ft 336 kts 190°
2026-05-06 21:56 50.92893 -114.17714 13720 ft 341 kts 189°
2026-05-06 21:57 50.90544 -114.18288 14099 ft 345 kts 188°
2026-05-06 21:57 50.88167 -114.18866 14477 ft 348 kts 188°
2026-05-06 21:57 50.85761 -114.19449 14847 ft 350 kts 188°
2026-05-06 21:57 50.83344 -114.20033 15215 ft 353 kts 188°
2026-05-06 21:58 50.80918 -114.20618 15582 ft 355 kts 188°
2026-05-06 21:58 50.78466 -114.21207 15949 ft 357 kts 188°
2026-05-06 21:58 50.75985 -114.21803 16318 ft 360 kts 188°
2026-05-06 21:58 50.73516 -114.22395 16683 ft 362 kts 188°
2026-05-06 21:59 50.71041 -114.22987 17047 ft 364 kts 188°
2026-05-06 21:59 50.68520 -114.23591 17415 ft 367 kts 188°
2026-05-06 21:59 50.66018 -114.24190 17774 ft 366 kts 189°
2026-05-06 21:59 50.63544 -114.24988 18126 ft 366 kts 196°
2026-05-06 22:00 50.61113 -114.26215 18494 ft 366 kts 199°
2026-05-06 22:00 50.58720 -114.27475 18855 ft 367 kts 199°
2026-05-06 22:00 50.56300 -114.28746 19215 ft 367 kts 200°
2026-05-06 22:00 50.53875 -114.30015 19579 ft 369 kts 200°
2026-05-06 22:01 50.51431 -114.31287 19946 ft 371 kts 200°
2026-05-06 22:01 50.48990 -114.32551 20309 ft 372 kts 200°
2026-05-06 22:01 50.46537 -114.33820 20673 ft 374 kts 200°
2026-05-06 22:01 50.44091 -114.35083 21033 ft 375 kts 200°
2026-05-06 22:02 50.41618 -114.36355 21396 ft 377 kts 201°
2026-05-06 22:02 50.39125 -114.37635 21765 ft 380 kts 201°
2026-05-06 22:02 50.36608 -114.38924 22134 ft 382 kts 201°
2026-05-06 22:02 50.34071 -114.40221 22504 ft 384 kts 201°
2026-05-06 22:03 50.31540 -114.41514 22871 ft 386 kts 201°
2026-05-06 22:03 50.28981 -114.42819 23240 ft 387 kts 202°
2026-05-06 22:03 50.26447 -114.44110 23603 ft 389 kts 202°
2026-05-06 22:03 50.23851 -114.45433 23836 ft 394 kts 202°
2026-05-06 22:04 50.21223 -114.46771 23891 ft 403 kts 202°
2026-05-06 22:04 50.18558 -114.48123 23878 ft 401 kts 202°
2026-05-06 22:04 50.15950 -114.49435 23878 ft 393 kts 202°
2026-05-06 22:04 50.13367 -114.50732 23877 ft 386 kts 202°
2026-05-06 22:05 50.10865 -114.51990 23878 ft 380 kts 202°
2026-05-06 22:05 50.08366 -114.53247 23879 ft 375 kts 202°
2026-05-06 22:05 50.05916 -114.54479 23881 ft 370 kts 202°
2026-05-06 22:05 50.03466 -114.55711 23881 ft 367 kts 202°
2026-05-06 22:06 50.01072 -114.56918 23885 ft 367 kts 202°
2026-05-06 22:06 49.98627 -114.58148 23885 ft 367 kts 202°
2026-05-06 22:06 49.96215 -114.59360 23886 ft 367 kts 202°
2026-05-06 22:06 49.93781 -114.60583 23886 ft 368 kts 202°
2026-05-06 22:07 49.91370 -114.61792 23886 ft 368 kts 202°
2026-05-06 22:07 49.88916 -114.63020 23881 ft 366 kts 202°
2026-05-06 22:07 49.86510 -114.64223 23876 ft 366 kts 202°
2026-05-06 22:07 49.84090 -114.65431 23874 ft 365 kts 201°
2026-05-06 22:08 49.81666 -114.66640 23875 ft 365 kts 201°
2026-05-06 22:08 49.79251 -114.67844 23877 ft 366 kts 202°
2026-05-06 22:08 49.76815 -114.69055 23876 ft 365 kts 202°
2026-05-06 22:08 49.74426 -114.70244 23876 ft 365 kts 201°
2026-05-06 22:09 49.72007 -114.71446 23875 ft 366 kts 201°
2026-05-06 22:09 49.69649 -114.72845 23848 ft 360 kts 214°
2026-05-06 22:09 49.67736 -114.75182 23918 ft 348 kts 229°
2026-05-06 22:09 49.65953 -114.77763 23903 ft 348 kts 230°
2026-05-06 22:10 49.64204 -114.80308 23898 ft 349 kts 229°
2026-05-06 22:10 49.62432 -114.82881 23903 ft 350 kts 229°
2026-05-06 22:10 49.60657 -114.85452 23911 ft 351 kts 229°
2026-05-06 22:10 49.58889 -114.88006 23921 ft 352 kts 229°
2026-05-06 22:11 49.57087 -114.90603 23932 ft 353 kts 229°
2026-05-06 22:11 49.55294 -114.93181 23945 ft 354 kts 229°
2026-05-06 22:11 49.53478 -114.95789 23954 ft 355 kts 229°
2026-05-06 22:11 49.51672 -114.98377 23963 ft 356 kts 229°
2026-05-06 22:12 49.49857 -115.00974 23963 ft 357 kts 230°
2026-05-06 22:12 49.48063 -115.03536 23963 ft 356 kts 230°
2026-05-06 22:12 49.46249 -115.06126 23963 ft 355 kts 230°
2026-05-06 22:12 49.44444 -115.08700 23962 ft 353 kts 230°
2026-05-06 22:13 49.42631 -115.11280 23962 ft 351 kts 230°
2026-05-06 22:13 49.40857 -115.13802 23961 ft 349 kts 230°
2026-05-06 22:13 49.39098 -115.16302 23960 ft 346 kts 230°
2026-05-06 22:13 49.37316 -115.18829 23961 ft 342 kts 229°
2026-05-06 22:14 49.35582 -115.21286 23959 ft 340 kts 229°
2026-05-06 22:14 49.33872 -115.23708 23956 ft 337 kts 229°
2026-05-06 22:14 49.32150 -115.26144 23957 ft 334 kts 229°
2026-05-06 22:14 49.30447 -115.28552 23958 ft 332 kts 229°
2026-05-06 22:15 49.28767 -115.30924 23957 ft 330 kts 230°
2026-05-06 22:15 49.27084 -115.33299 23958 ft 328 kts 230°
2026-05-06 22:15 49.25415 -115.35651 23959 ft 327 kts 230°
2026-05-06 22:15 49.23745 -115.38004 23959 ft 326 kts 230°
2026-05-06 22:16 49.22069 -115.40363 23959 ft 325 kts 230°
2026-05-06 22:16 49.20414 -115.42690 23961 ft 324 kts 230°
2026-05-06 22:16 49.18746 -115.45033 23958 ft 324 kts 230°
2026-05-06 22:16 49.17089 -115.47357 23958 ft 324 kts 230°
2026-05-06 22:17 49.15447 -115.49658 23959 ft 324 kts 230°
2026-05-06 22:17 49.13783 -115.51989 23960 ft 324 kts 230°
2026-05-06 22:17 49.12128 -115.54305 23961 ft 323 kts 230°
2026-05-06 22:17 49.10463 -115.56634 23958 ft 323 kts 230°
2026-05-06 22:18 49.08813 -115.58936 23957 ft 322 kts 230°
2026-05-06 22:18 49.07167 -115.61232 23956 ft 321 kts 230°
2026-05-06 22:18 49.05537 -115.63505 23959 ft 321 kts 230°
2026-05-06 22:18 49.03885 -115.65807 23960 ft 322 kts 229°
2026-05-06 22:19 49.02242 -115.68094 23957 ft 321 kts 229°